STARLINK-35160

Satellite information

Favourite Embed

Satellite Type and Status

PAYLOADIN ORBIT

Key statistics

Satellite STARLINK-35160 at a glance.

Uptime

19

Days in orbit

Revolutions

≈ 15.7

Per day

Orbit

LEO

Low Earth Orbit

Inclination

53.2

Latest

Satellite identification and parameters

Extended collection of information and parameters for STARLINK-35160.

Object identification

Identified? True

Debris? False

Object name: STARLINK-35160

International designator: 2025-225B

Object number (NORAD): 65911

Object ID (CCSDS): 65911

Country: UNITED STATES OF AMERICA (US)

Current information (Y/N): Y

Orbital parameters

Period: 91.47 minutes

Inclination: 53.16 deg

SMA: 6724.79 km

Apoapsis: 347.288 km

Periapsis: 346.022 km

RAAN: 71.1603 deg

Eccentricy: 0.00009418

Argument of periapsis: 74.7511 deg

Mean anomaly: 285.3613 deg

Mean motion: 15.7428978 rev/day

Mean motion (dot): 0.00261788 rev/day2

B* drag term: 0.0017292432 1/REarth

Two-line elements (TLE)

Creation date: Oct. 27, 2025, 2:46 a.m.

Reference frame: TEME

Reference center: EARTH

Epoch: Oct. 26, 2025, 8:29 p.m. UTC

TLE line 0: 0 STARLINK-35160

TLE line 1: 1 65911U 25225B 25299.85382866 .00261788 00000-0 17292-2 0 9996

TLE line 2: 2 65911 53.1600 71.1603 0000942 74.7511 285.3613 15.74289780 3863

Live tracking on map

Real-time ground track for satellite STARLINK-35160.

In-orbit conjunctions

There are no conjunctions computed for STARLINK-35160, at the moment. Check back to stay up to date, as we update our databases every day.

Go to all conjunctions

Associated space launch

A batch of 28 satellites for the Starlink mega-constellation - SpaceX's project for space-based Internet communication system.

STARLINK-35160 was lifted into orbit during the mission ‘Falcon 9 Block 5 | Starlink Group 11-17’, on board a Falcon 9 space rocket.

The launch took place on Oct. 8, 2025, 3:54 a.m. from Space Launch Complex 4E.

For more information about the launch, click the button.

Launch to space Falcon 9 Block 5 | Starlink Group 11-17
Falcon 9 Block 5 | Starlink Group 11-17

Agency: SpaceX

Status: Launch Successful

Launch date: Oct. 8, 2025, 3:54 a.m. UTC

Rocket: Falcon 9

Launch pad: Space Launch Complex 4E

Location: Vandenberg SFB, CA, USA

...

Latest news about this satellite

News about space launch
Live coverage: SpaceX to launch 28 Starlink satellites on Falcon 9 rocket from Vandenberg SFB

SpaceX will use its second most launched Falcon 9 booster to launch the Starlink 11-17 mission. Liftoff from pad 4E at Vandenberg Space Force Base is scheduled for 8:54 p.m. PDT (11:54 p.m. EDT / 0354 UTC).

News about space launch
Launch Roundup: Falcon 9 to launch five times, Blue Origin to launch crew

SpaceX is set to dominate the launch manifest for the first whole week of October… The post Launch Roundup: Falcon 9 to launch five times, Blue Origin to launch crew appeared first on NASASpaceFlight.com.


Newsletter sign-up

Weekly statistics, charts and insights to help you stay on top of the space industry.